Starlink 1741

operational
NORAD ID: 46567 Int'l Des: 2020-070 Owner: SPXS Country: US Constellation: starlink
LEOCIRCULAR

Über Starlink 1741

Beschreibung wird geladen...

Live-Position

3D-Globus wird geladen...

Nächste Überflüge

Höhenverlauf

Altitude vs Time

uPlot chart will show altitude changes over time

Zweizeiliger Elementsatz

1 46567U 20070AM 26063.00001157 .00154460 00000-0 17400-2 0 9992
2 46567 53.0431 145.6146 0003703 168.4267 345.7217 15.61548038 5993
Epoch: 4. März 2026 • Age: 17 hours

Aktueller Status

Höhe 399.1 km
Geschwindigkeit 7.67 km/s
Subsatellitenpunkt -49.46°S, 39.05°W
Startdatum 6. Okt. 2020
Alter 5.4 years
Typ internet

Technische Details

Klassifizierung Payload
Masse 260.00 kg
Trockenmasse 248.00 kg
Gesamtmasse 260.00 kg
Länge 0.20 m
Durchmesser 2.80 m
Spannweite 9.00 m
Form Box + pan
Hersteller SPXS
Bus-Typ Starlink
Phasenstatus In Orbit
Besitzer/Staat SPXS/US

Große Konstellationen

Loading constellations...